[[{"header":{"parameterUnit":"m.s-1","parameterCategory":1,"la1":30.2992,"la2":30.254,"lo1":-89.0895,"lo2":-89.0443,"dy":0.0025,"dx":0.0025,"nx":19,"ny":19,"refTime":"2026-03-26T09:00:00:Z","depth":0,"parameterNumber":2,"parameterNumberName":"U-component_of_WINDS"},"data":[0,0,0,-1.331,-1.331,-1.3308,-1.3308,-1.3312,-1.3312,0,0,0,0,0,0,0,0,0,0,0,-1.3314,-1.3314,-1.331,-1.331,-1.3308,-1.3308,-1.3312,-1.3312,0,0,0,0,0,0,0,0,0,0,0,-1.3314,-1.3314,-1.3314,-1.331,-1.3308,-1.3308,-1.3312,-1.3311,0,0,0,0,0,0,0,0,0,0,-1.3312,-1.3319,-1.3314,-1.3314,-1.331,-1.3308,-1.3308,-1.3311,-1.3311,-1.3316,0,-1.332,0,-1.3316,-1.3313,-1.3313,0,0,0,-1.3307,-1.3319,-1.3315,-1.3314,-1.331,-1.3308,-1.3308,-1.3311,-1.3311,-1.3316,-1.332,-1.332,-1.3317,-1.3313,-1.3313,-1.3348,-1.3348,0,0,-1.3307,-1.3315,-1.3315,-1.3316,-1.3316,-1.3308,-1.3308,-1.3311,-1.3316,-1.332,-1.332,-1.3317,-1.3313,-1.3313,-1.3348,-1.3348,0,0,0,-1.3309,-1.3316,-1.3312,-1.3316,-1.3315,-1.3308,-1.3308,-1.3316,-1.3314,-1.332,-1.3317,-1.3313,-1.3313,-1.3347,-1.3348,-1.337,0,0,0,-1.3309,-1.3317,-1.3312,-1.3317,-1.3315,-1.3315,-1.3313,-1.3314,-1.3314,-1.3317,-1.3313,-1.3313,-1.3347,-1.3348,-1.3369,-1.338,0,0,0,-1.3313,-1.3317,-1.3318,-1.3317,-1.3317,-1.3315,-1.3313,-1.3314,-1.3312,-1.3313,-1.3313,-1.3347,-1.3348,-1.3368,-1.3378,-1.3392,0,0,0,-1.3319,-1.3338,-1.3319,-1.3338,-1.3317,-1.3329,-1.3313,-1.3322,-1.3325,-1.3313,-1.3347,-1.3348,-1.3368,-1.3376,-1.3391,-1.3405,-1.3412,0,0,-1.3347,-1.3341,-1.3353,-1.3335,-1.3353,-1.3329,-1.335,-1.3345,-1.3338,-1.3345,-1.3346,-1.337,-1.3378,-1.3392,-1.3447,-1.3453,0,0,0,-1.3364,-1.3373,-1.3375,-1.3379,-1.3376,-1.3375,-1.3366,-1.3365,-1.3371,-1.3343,-1.3378,-1.3383,-1.339,-1.3397,-1.3402,-1.3408,-1.3351,-1.3351,-1.3351,-1.3416,-1.3406,-1.3424,-1.3414,-1.3418,-1.341,-1.3412,-1.3409,-1.3397,-1.3405,-1.3407,-1.3442,-1.345,-1.3454,-1.3461,-1.3414,-1.3414,-1.3414,-1.3414,-1.3457,-1.3468,-1.3452,-1.3464,-1.3454,-1.3464,-1.3457,-1.3448,-1.3456,-1.344,-1.3446,-1.3429,-1.346,-1.3466,-1.3416,-1.3416,-1.3416,-1.3415,-1.3415,-1.349,-1.3494,-1.3492,-1.3497,-1.3503,-1.3492,-1.3501,-1.3491,-1.3481,-1.3488,-1.3489,-1.3489,-1.3488,-1.3489,-1.3489,-1.3489,-1.349,-1.349,-1.349,-1.3526,-1.3523,-1.3531,-1.3531,-1.3533,-1.3534,-1.3526,-1.3528,-1.3527,-1.3519,-1.3519,-1.3507,-1.3465,-1.3455,-1.3492,-1.3491,-1.3491,-1.3491,-1.3491,-1.3572,-1.356,-1.3573,-1.3575,-1.3574,-1.3581,-1.3568,-1.3572,-1.3572,-1.3577,-1.3564,-1.3535,-1.3528,-1.3524,-1.3516,-1.3566,-1.3566,-1.3566,-1.3566,-1.36,-1.3596,-1.3608,-1.3611,-1.3614,-1.3604,-1.3621,-1.3615,-1.3608,-1.3608,-1.3599,-1.3587,-1.3583,-1.3579,-1.3574,-1.3566,-1.3627,-1.3627,-1.3627,-1.3628,-1.3624,-1.3639,-1.3632,-1.3631,-1.363,-1.3645,-1.3651,-1.364,-1.363,-1.3607,-1.3605,-1.3585,-1.3579,-1.3568,-1.356,-1.3545,0,0]},{"header":{"parameterUnit":"m.s-1","parameterCategory":1,"la1":30.2992,"la2":30.254,"lo1":-89.0895,"lo2":-89.0443,"dy":0.0025,"dx":0.0025,"nx":19,"ny":19,"refTime":"2026-03-26T09:00:00:Z","depth":0,"parameterNumber":3,"parameterNumberName":"V-component_of_WINDS"},"data":[0,0,0,3.6662,3.6663,3.6709,3.671,3.6767,3.6768,0,0,0,0,0,0,0,0,0,0,0,3.6649,3.6649,3.6662,3.6663,3.6709,3.671,3.6767,3.6768,0,0,0,0,0,0,0,0,0,0,0,3.6649,3.6649,3.665,3.6663,3.6709,3.671,3.6767,3.6732,0,0,0,0,0,0,0,0,0,0,3.6687,3.6676,3.6649,3.665,3.6664,3.6709,3.671,3.6731,3.6735,3.6746,0,3.6758,0,3.6764,3.6772,3.6772,0,0,0,3.6662,3.6673,3.6685,3.665,3.6664,3.6709,3.6688,3.6733,3.6737,3.6751,3.6759,3.6761,3.6765,3.6772,3.6773,3.6848,3.6849,0,0,3.666,3.6657,3.6682,3.6688,3.6683,3.6687,3.669,3.6735,3.6743,3.6759,3.6763,3.6766,3.6773,3.6773,3.6848,3.6849,0,0,0,3.6653,3.6655,3.6666,3.6686,3.6694,3.6688,3.6691,3.6741,3.6745,3.6763,3.6767,3.6773,3.6774,3.6848,3.6848,3.6867,0,0,0,3.6651,3.6651,3.6665,3.6664,3.6694,3.6719,3.6696,3.6742,3.6747,3.6767,3.6773,3.6774,3.6847,3.6848,3.6866,3.6876,0,0,0,3.6646,3.6651,3.6658,3.6664,3.6684,3.6718,3.6724,3.6743,3.6749,3.6772,3.6774,3.6847,3.6848,3.6864,3.6874,3.6896,0,0,0,3.6638,3.6672,3.6658,3.6697,3.6684,3.673,3.6724,3.6758,3.678,3.6773,3.6847,3.6848,3.6864,3.6873,3.6895,3.6915,3.6923,0,0,3.6679,3.6677,3.67,3.6689,3.6737,3.6723,3.6773,3.6794,3.6797,3.6831,3.6833,3.6866,3.6874,3.6896,3.6969,3.6975,0,0,0,3.6712,3.6729,3.6742,3.6764,3.6783,3.6799,3.6814,3.6822,3.6851,3.6815,3.688,3.6884,3.6898,3.6907,3.6913,3.6925,3.6853,3.6852,3.6852,3.6766,3.6771,3.681,3.6821,3.6842,3.6857,3.6875,3.6888,3.6884,3.69,3.691,3.6954,3.6965,3.6969,3.6982,3.692,3.692,3.692,3.692,3.6828,3.6853,3.685,3.6887,3.6891,3.6922,3.6938,3.6935,3.6963,3.6946,3.6958,3.6939,3.6976,3.6987,3.6922,3.6922,3.6921,3.6921,3.6921,3.6864,3.6877,3.6888,3.6921,3.6946,3.6955,3.6983,3.6985,3.6987,3.6999,3.701,3.701,3.701,3.7004,3.7004,3.7004,3.7004,3.7005,3.7005,3.6898,3.691,3.6935,3.6959,3.6974,3.6994,3.701,3.7024,3.7041,3.704,3.704,3.7035,3.6979,3.6966,3.7007,3.7007,3.7006,3.7006,3.7006,3.696,3.6947,3.6985,3.7001,3.7029,3.7054,3.7057,3.7086,3.7098,3.7112,3.7106,3.7064,3.7061,3.7056,3.7045,3.7104,3.7104,3.7104,3.7104,3.6991,3.6991,3.7031,3.7056,3.708,3.7087,3.7129,3.7143,3.7154,3.7161,3.7153,3.7138,3.7133,3.7133,3.7127,3.7116,3.7193,3.7193,3.7193,3.703,3.7032,3.7068,3.7081,3.7104,3.7124,3.7164,3.7191,3.7201,3.7197,3.7168,3.7164,3.714,3.7131,3.7126,3.7117,3.7098,0,0]}]]